Regional Weather Roundup
Issued by NWS

Home | Current Version | Previous Version | Text Only | Print | Product List | Glossary Off
Versions: 1 2 3 4 5 6 7 8 9 10 11 12 13 14 15 16 17 18 19 20 21 22 23 24 25 26 27 28

000
ASUS45 KSLC 231810
RWRUT

UTAH REGIONAL WEATHER ROUNDUP
NATIONAL WEATHER SERVICE SALT LAKE CITY UT
1200 PM MDT MON APR 23 2018

UTZ001>011-023>025-231900-

NORTHERN UTAH

CITY           SKY/WX    TMP DP  RH WIND       PRES   REMARKS
BRIGHAM CITY   SUNNY     58  28  32 W3        30.18S
DUGWAY         PTSUNNY   63  30  29 SW6       30.17S
HILL AFB       MOSUNNY   57  36  45 NW9       30.17R
LOGAN          MOSUNNY   59  32  36 VRB6      30.17S
OGDEN          SUNNY     59  30  33 NW14      30.16S
SALT LAKE CITY MOSUNNY   62  42  47 NW10G18   30.16S
TOOELE VALLEY  SUNNY     61  43  51 N10G16    30.18S
WENDOVER       MOSUNNY   63  22  20 SE15      30.17S
HEBER CITY       N/A     61  28  29 CALM      30.13S
WEST JORDAN    SUNNY     60  42  51 N13       30.17S

$$

UTZ011>015-024>027-231900-

CENTRAL/NORTHEAST UTAH

CITY           SKY/WX    TMP DP  RH WIND       PRES   REMARKS
PROVO AIRPORT  MOSUNNY   62  41  46 W7        30.16R
MOAB/CANYONLAN SUNNY     76  24  14 N8        30.04S
DELTA          SUNNY     63  34  34 CALM      30.16F
PRICE          SUNNY     69  29  22 W15G24    30.10F
RICHFIELD      SUNNY     66  32  28 NE8       30.13F
ROOSEVELT      SUNNY     70  30  23 W16G25    30.09S
VERNAL         SUNNY     68  31  25 MISG      30.05F

$$

UTZ013>016-019>022-027-231900-

SOUTHERN UTAH

CITY           SKY/WX    TMP DP  RH WIND       PRES   REMARKS
BRYCE CANYON   SUNNY     65  19  17 W10G20    30.23S
CEDAR CITY     SUNNY     69  25  19 NW8       30.14S
MILFORD        SUNNY     66  38  35 N17       30.14S
ST GEORGE      CLEAR     75  26  16 W3        30.03F
HANKSVILLE     SUNNY     75  21  13 CALM      30.07S
KANAB          SUNNY     75  19  12 S10       30.15F
BLANDING         N/A     69  20  15 S8        30.23S

$$

REGIONAL REPORTS     COLORADO/ARIZONA

CITY           SKY/WX    TMP DP  RH WIND       PRES   REMARKS
CRAIG, CO      MOSUNNY   65  37  35 NW17      30.10R
GRAND JUNCTION SUNNY     73  32  22 VRB3      30.06F
RIFLE, CO      SUNNY     65  38  36 CALM      30.08F
MONTROSE, CO   SUNNY     72  20  14 NW17      30.11F
CORTEZ, CO     SUNNY     71  21  15 SW16      30.16S
COLORADO CITY    N/A     77  21  12 SW8       30.15S
PAGE, AZ       SUNNY     74  22  14 NE6       30.08F
GRAND CANYON   SUNNY     68  17  14 SW10G21   30.23S
KINGMAN, AZ    SUNNY     83  25  12 SW12      30.07S
FLAGSTAFF, AZ  SUNNY     66  21  18 SW15G22   30.25S

$$

REGIONAL REPORTS    NEVADA/IDAHO/WYOMING

CITY           SKY/WX    TMP DP  RH WIND       PRES   REMARKS
LAS VEGAS, NV  MOSUNNY   84  23  10 VRB5      29.99S
ELY, NY        MOSUNNY   60  22  23 N5        30.21R
ELKO, NV       SUNNY     58  22  24 W8        30.21S
POCATELLO, ID  PTSUNNY   48  31  51 W22       30.22R
BURLEY, ID     SUNNY     53  27  36 W16G24    30.20R
FORT BRIDGER,  MOCLDY    55  30  39 W18G26    30.20S
EVANSTON, WY   MOSUNNY   53  29  39 W22G30    30.18S
ROCK SPRINGS,  SUNNY     54  32  43 W20G26    30.14F
KEMMERER, WY   MOSUNNY   50  30  46 W17G26    30.17F

$$




USA.gov is the U.S. government's official web portal to all federal, state and local government web resources and services.